| time (UTC) | temp F | wind direction | speed knots | gust knots | rain 1hr in | rain 24hr in | rain mn in | humidity % | barometer mb |
| 20260505011545 | 51 | 194 | 3.5 | 9.6 | 0.00 | 0.00 | 0.00 | 82 | 1007.3 |
| 20260505010052 | 51 | 188 | 1.7 | 8.7 | 0.00 | 0.00 | 0.00 | 83 | 1007.2 |
| 20260505004548 | 50 | 143 | 3.5 | 7.8 | 0.00 | 0.00 | 0.00 | 85 | 1007.1 |
| 20260505003054 | 48 | 183 | 0.9 | 3.5 | 0.00 | 0.00 | 0.00 | 88 | 1007.0 |
| 20260505001542 | 47 | 215 | 0.9 | 2.6 | 0.00 | 0.00 | 0.00 | 89 | 1007.0 |
| 20260505000040 | 47 | 189 | 0.9 | 3.5 | 0.00 | 0.00 | 0.00 | 89 | 1006.9 |
| 20260504234540 | 47 | 190 | 0.9 | 6.1 | 0.00 | 0.00 | 0.00 | 88 | 1006.7 |
| 20260504233039 | 47 | 201 | 3.5 | 6.1 | 0.00 | 0.00 | 0.00 | 88 | 1006.6 |
| 20260504231539 | 47 | 191 | 0.0 | 5.2 | 0.00 | 0.00 | 0.00 | 88 | 1006.3 |
| 20260504230039 | 48 | 195 | 3.5 | 5.2 | 0.00 | 0.00 | 0.00 | 87 | 1006.2 |
| 20260504224538 | 48 | 183 | 2.6 | 4.3 | 0.00 | 0.00 | 0.00 | 88 | 1006.0 |
| 20260504223055 | 48 | 184 | 1.7 | 3.5 | 0.00 | 0.00 | 0.00 | 88 | 1005.9 |
| 20260504221536 | 48 | 192 | 2.6 | 6.1 | 0.00 | 0.00 | 0.00 | 87 | 1005.8 |
| 20260504220037 | 48 | 171 | 2.6 | 5.2 | 0.00 | 0.00 | 0.00 | 86 | 1006.0 |
| 20260504214534 | 49 | 172 | 4.3 | 7.8 | 0.00 | 0.00 | 0.00 | 84 | 1005.9 |
| 20260504213036 | 49 | 212 | 2.6 | 5.2 | 0.00 | 0.00 | 0.00 | 85 | 1006.0 |
| 20260504211546 | 50 | 206 | 2.6 | 4.3 | 0.00 | 0.00 | 0.00 | 83 | 1005.9 |
| 20260504210036 | 50 | 191 | 2.6 | 5.2 | 0.00 | 0.00 | 0.00 | 83 | 1005.8 |
| 20260504204532 | 50 | 192 | 2.6 | 4.3 | 0.00 | 0.00 | 0.00 | 82 | 1005.8 |
| 20260504203030 | 52 | 183 | 1.7 | 4.3 | 0.00 | 0.00 | 0.00 | 79 | 1005.9 |
| 20260504201531 | 53 | 202 | 1.7 | 3.5 | 0.00 | 0.00 | 0.00 | 77 | 1005.9 |
| 20260504200029 | 53 | 203 | 0.9 | 5.2 | 0.00 | 0.00 | 0.00 | 76 | 1005.7 |
| 20260504194529 | 55 | 176 | 0.0 | 4.3 | 0.00 | 0.00 | 0.00 | 72 | 1005.7 |
| 20260504193027 | 60 | 96 | 1.7 | 3.5 | 0.00 | 0.00 | 0.00 | 63 | 1005.8 |
| 20260504191527 | 59 | 268 | 0.0 | 2.6 | 0.00 | 0.00 | 0.00 | 66 | 1005.9 |
| 20260504190023 | 56 | 182 | 1.7 | 5.2 | 0.00 | 0.00 | 0.00 | 68 | 1006.1 |
| 20260504184535 | 57 | 203 | 2.6 | 5.2 | 0.00 | 0.00 | 0.00 | 65 | 1005.9 |
| 20260504183021 | 58 | 197 | 4.3 | 8.7 | 0.00 | 0.00 | 0.00 | 64 | 1006.0 |
| 20260504181520 | 57 | 182 | 1.7 | 9.6 | 0.00 | 0.00 | 0.00 | 64 | 1006.0 |
| 20260504180021 | 57 | 181 | 5.2 | 13.9 | 0.00 | 0.00 | 0.00 | 63 | 1005.9 |
| 20260504174517 | 57 | 203 | 4.3 | 9.6 | 0.00 | 0.02 | 0.00 | 64 | 1005.8 |
| 20260504173119 | 54 | 187 | 8.7 | 13.0 | 0.00 | 0.02 | 0.00 | 69 | 1005.8 |
| 20260504171515 | 53 | 161 | 8.7 | 13.0 | 0.00 | 0.02 | 0.00 | 73 | 1005.8 |
| 20260504081553 | 41 | 209 | 0.0 | 0.9 | 0.00 | 0.14 | 0.00 | 76 | 1007.9 |
| 20260504044533 | 40 | 225 | 0.0 | 0.9 | 0.00 | 0.15 | 0.00 | 78 | 1007.8 |
| 20260504043031 | 40 | 176 | 0.0 | 0.0 | 0.00 | 0.15 | 0.00 | 78 | 1007.8 |
| 20260504041534 | 40 | 177 | 0.0 | 0.0 | 0.00 | 0.15 | 0.00 | 78 | 1007.8 |
| 20260504040026 | 40 | 177 | 0.0 | 0.0 | 0.00 | 0.15 | 0.00 | 76 | 1007.7 |
| 20260504034526 | 40 | 204 | 0.0 | 0.0 | 0.00 | 0.15 | 0.15 | 76 | 1007.4 |
| 20260504033023 | 41 | 221 | 0.0 | 0.9 | 0.00 | 0.15 | 0.15 | 73 | 1007.5 |
| 20260504031521 | 42 | 126 | 0.0 | 1.7 | 0.00 | 0.15 | 0.15 | 70 | 1007.3 |
| 20260504030020 | 43 | 192 | 0.0 | 1.7 | 0.00 | 0.15 | 0.15 | 68 | 1007.2 |
| 20260504024523 | 44 | 263 | 0.0 | 1.7 | 0.00 | 0.15 | 0.15 | 67 | 1007.2 |
| 20260504023119 | 44 | 85 | 0.0 | 1.7 | 0.00 | 0.15 | 0.15 | 67 | 1007.1 |
| 20260504021518 | 44 | 129 | 0.0 | 3.5 | 0.00 | 0.15 | 0.15 | 65 | 1007.1 |
| 20260504020019 | 44 | 33 | 0.0 | 3.5 | 0.00 | 0.15 | 0.15 | 65 | 1007.0 |
| 20260504014524 | 45 | 229 | 0.9 | 3.5 | 0.00 | 0.15 | 0.15 | 64 | 1006.8 |
| 20260504013116 | 45 | 51 | 0.9 | 3.5 | 0.00 | 0.15 | 0.15 | 63 | 1006.7 |